Regional Weather Roundup
Issued by NWS

Home | Current Version | Previous Version | Text Only | Print | Product List | Glossary Off
Versions: 1 2 3 4 5 6 7 8 9 10 11 12 13 14 15 16 17 18 19 20 21 22 23 24 25 26 27 28 29 30 31 32 33 34 35 36 37 38 39 40 41 42 43 44 45 46 47 48

000
ASUS45 KBOI 261910
RWRID
WEATHER ROUNDUP FOR IDAHO
NATIONAL WEATHER SERVICE BOISE ID
1200 PM MST MON JAN 26 2015

NOTE: "FAIR" INDICATES FEW OR NO CLOUDS BELOW 12000 FEET
WITH NO SIGNIFICANT WEATHER AND/OR OBSTRUCTIONS TO VISIBILITY

IDZ012-014-262000-
SOUTHWEST IDAHO


CITY           SKY/WX    TMP DP  RH WIND       PRES   REMARKS
BOISE          PTSUNNY   39  34  81 NE3       30.31F
CALDWELL       MOSUNNY   41  28  60 N10G16    30.33F
MOUNTAIN HOME  SUNNY     42  35  75 S9        30.28F
$$

IDZ016-017-262000-
SOUTHCENTRAL IDAHO


CITY           SKY/WX    TMP DP  RH WIND       PRES   REMARKS
BURLEY         CLOUDY    36  32  85 NE17      30.30F WCI  26
JEROME         SUNNY     39  32  76 NE22      30.29F WCI  29
TWIN FALLS     FOG       34  32  92 NE10      30.29F VSB 1/4 WCI  26
$$

IDZ019>023-262000-
SOUTHEAST IDAHO


CITY           SKY/WX    TMP DP  RH WIND       PRES   REMARKS
IDAHO FALLS    MOSUNNY   34  32  92 N6        30.37F WCI  29
POCATELLO      FOG       32  32 100 E5        30.36F VSB 1   WCI  27
REXBURG        MOSUNNY   30  25  81 E5        30.37F WCI  25
$$

IDZ006-010-011-018-031-032-262000-
CENTRAL IDAHO MOUNTAINS


CITY           SKY/WX    TMP DP  RH WIND       PRES   REMARKS
MCCALL         SUNNY     32  27  81 CALM      30.25S
HAILEY         SUNNY     43  28  56 NW7       30.35F
STANLEY          N/A     20  15  81 CALM      30.36F
SALMON         CLOUDY   N/A N/A N/A CALM      30.35F VSB 1/4
CHALLIS        SUNNY     38  29  70 CALM      30.33F
$$

IDZ002-004-006-007-026-262000-
NORTHERN IDAHO


CITY           SKY/WX    TMP DP  RH WIND       PRES   REMARKS
LEWISTON       SUNNY     57  37  47 S6        30.09S
LOWELL           N/A     42  35  76 N6        30.19F
COEUR D`ALENE  CLOUDY    39  37  93 NE10      30.07S VSB 1/2 WCI  32
MULLAN PASS    SUNNY     50  26  39 S8G20     30.12F
$$



USA.gov is the U.S. government's official web portal to all federal, state and local government web resources and services.